{"data":{"norad_id":60182,"intl_designator":"2024-123A","name":"ALOS-4 (DAICHI-4)","alt_names":[],"object_type":"PAYLOAD","status":"ACTIVE","operator":null,"country":"JPN","launch_date":"2024-07-01","launch_site_code":"TANSC","launch_vehicle":null,"mission":null,"orbit_class":"UNKNOWN","rcs_meters":null,"size_class":null,"mass_kg":null,"dimensions":null,"purposes":["earth_obs"],"wikipedia_slug":null,"has_3d_model":false,"image_url":null,"decayed_at":null,"tle_current":{"epoch":"2026-09-19T21:53:28.817376Z","epoch_age_seconds":69014,"freshness":"FRESH","line1":"1 60182U 24123A   26262.91213909  .00000849  00000+0  12056-3 0  9998","line2":"2 60182  97.9220 358.7239 0001459  99.3814 260.7563 14.79471071119885","mean_motion":14.79471071,"eccentricity":0.0001459,"inclination_deg":97.922,"raan_deg":358.7239,"arg_perigee_deg":99.3814,"mean_anomaly_deg":260.7563,"bstar":0.00012056,"rev_number":11988,"period_min":97.332082270908,"perigee_km":629.97157171107,"apogee_km":632.01683619638,"semimajor_km":7009.1312039537,"source":"CELESTRAK","updated_at":"2026-09-20T09:00:33.979793Z"}}}